StationID,Date,MaxTemp,MinTemp,Precipitation,Snowfall,SnowDepth
"UKW00015014","1954-03-01",37.04,24.98,3.00,3.00,0.00
"UKW00015014","1954-03-02",41.00,24.98,51.00,51.00,0.00
"UKW00015014","1954-03-03",46.94,30.02,5.00,5.00,0.00
"UKW00015014","1954-03-04",42.98,35.06,5.00,0.00,0.00
"UKW00015014","1954-03-05",42.98,33.08,0.00,0.00,0.00
"UKW00015014","1954-03-06",48.02,35.06,15.00,0.00,0.00
"UKW00015014","1954-03-07",50.00,37.04,97.00,0.00,0.00
"UKW00015014","1954-03-08",50.00,33.08,0.00,0.00,0.00
"UKW00015014","1954-03-09",46.94,35.06,8.00,0.00,0.00
"UKW00015014","1954-03-10",53.06,39.92,0.00,0.00,0.00
"UKW00015014","1954-03-11",59.00,37.04,0.00,0.00,0.00
"UKW00015014","1954-03-12",55.04,35.96,0.00,0.00,0.00
"UKW00015014","1954-03-13",37.04,35.96,0.00,0.00,0.00
"UKW00015014","1954-03-14",39.02,35.96,0.00,0.00,0.00
"UKW00015014","1954-03-15",37.94,35.06,0.00,0.00,0.00
"UKW00015014","1954-03-16",42.08,33.98,0.00,0.00,0.00
"UKW00015014","1954-03-17",44.06,37.94,0.00,0.00,0.00
"UKW00015014","1954-03-18",42.08,33.98,0.00,0.00,0.00
"UKW00015014","1954-03-19",51.08,39.92,28.00,0.00,0.00
"UKW00015014","1954-03-20",50.00,42.08,71.00,0.00,0.00
"UKW00015014","1954-03-21",55.94,41.00,10.00,0.00,0.00
"UKW00015014","1954-03-22",57.92,46.04,15.00,0.00,0.00
"UKW00015014","1954-03-23",55.04,44.06,0.00,0.00,0.00
"UKW00015014","1954-03-24",46.94,39.92,0.00,0.00,0.00
"UKW00015014","1954-03-25",53.06,39.92,38.00,0.00,0.00
"UKW00015014","1954-03-26",51.98,39.92,30.00,0.00,0.00
"UKW00015014","1954-03-27",55.04,35.96,0.00,0.00,0.00
"UKW00015014","1954-03-28",51.98,39.02,0.00,0.00,0.00
"UKW00015014","1954-03-29",53.06,37.04,8.00,0.00,0.00
"UKW00015014","1954-03-30",55.04,42.08,41.00,0.00,0.00
"UKW00015014","1954-03-31",51.08,39.92,130.00,0.00,0.00
"UKW00015014","1954-04-01",53.06,37.94,20.00,0.00,0.00
"UKW00015014","1954-04-02",57.02,41.00,23.00,0.00,0.00
"UKW00015014","1954-04-03",57.92,48.02,8.00,0.00,0.00
"UKW00015014","1954-04-04",53.96,35.96,5.00,0.00,0.00
"UKW00015014","1954-04-05",46.94,33.08,18.00,0.00,0.00
"UKW00015014","1954-04-06",46.94,32.00,20.00,0.00,0.00
"UKW00015014","1954-04-07",51.98,32.00,0.00,0.00,0.00
"UKW00015014","1954-04-08",57.02,35.06,0.00,0.00,0.00
"UKW00015014","1954-04-09",57.02,35.96,0.00,0.00,0.00
"UKW00015014","1954-04-10",55.94,35.06,0.00,0.00,0.00
"UKW00015014","1954-04-11",57.92,32.00,0.00,0.00,0.00
"UKW00015014","1954-04-12",53.96,41.00,0.00,0.00,0.00
"UKW00015014","1954-04-13",55.04,37.04,0.00,0.00,0.00
"UKW00015014","1954-04-14",55.04,39.92,0.00,0.00,0.00
"UKW00015014","1954-04-15",57.02,39.92,0.00,0.00,0.00
"UKW00015014","1954-04-16",53.06,39.02,0.00,0.00,0.00
"UKW00015014","1954-04-17",51.08,35.96,0.00,0.00,0.00
"UKW00015014","1954-04-18",53.06,37.94,0.00,0.00,0.00
"UKW00015014","1954-04-19",51.98,33.98,0.00,0.00,0.00
"UKW00015014","1954-04-20",51.98,33.98,0.00,0.00,0.00
"UKW00015014","1954-04-21",55.04,32.00,0.00,0.00,0.00
"UKW00015014","1954-04-22",53.96,33.08,0.00,0.00,0.00
"UKW00015014","1954-04-23",46.94,33.08,0.00,0.00,0.00
"UKW00015014","1954-04-24",50.00,41.00,8.00,0.00,0.00
"UKW00015014","1954-04-25",53.06,39.92,0.00,0.00,0.00
"UKW00015014","1954-04-26",57.92,37.04,0.00,0.00,0.00
"UKW00015014","1954-04-27",50.00,32.00,0.00,0.00,0.00
"UKW00015014","1954-04-28",51.08,33.08,0.00,0.00,0.00
"UKW00015014","1954-04-29",60.98,33.98,0.00,0.00,0.00
"UKW00015014","1954-04-30",60.08,42.98,0.00,0.00,0.00
"UKW00015014","1954-05-01",55.94,42.08,3.00,0.00,0.00
"UKW00015014","1954-05-02",48.92,39.92,18.00,0.00,0.00
"UKW00015014","1954-05-03",46.04,39.92,89.00,0.00,0.00
"UKW00015014","1954-05-04",53.96,41.00,28.00,0.00,0.00
"UKW00015014","1954-05-05",51.08,41.00,13.00,0.00,0.00
"UKW00015014","1954-05-06",51.98,39.92,33.00,0.00,0.00
"UKW00015014","1954-05-07",55.94,37.94,0.00,0.00,0.00
"UKW00015014","1954-05-08",62.06,37.94,0.00,0.00,0.00
"UKW00015014","1954-05-09",64.94,37.94,0.00,0.00,0.00
"UKW00015014","1954-05-10",73.94,44.96,0.00,0.00,0.00
"UKW00015014","1954-05-11",78.98,51.08,0.00,0.00,0.00
"UKW00015014","1954-05-12",80.06,53.06,0.00,0.00,0.00
"UKW00015014","1954-05-13",71.06,55.04,0.00,0.00,0.00
"UKW00015014","1954-05-14",66.02,48.92,0.00,0.00,0.00
"UKW00015014","1954-05-15",50.00,42.08,33.00,0.00,0.00
"UKW00015014","1954-05-16",51.08,39.92,0.00,0.00,0.00
"UKW00015014","1954-05-17",53.96,41.00,0.00,0.00,0.00
"UKW00015014","1954-05-18",53.06,39.02,0.00,0.00,0.00
"UKW00015014","1954-05-19",57.92,37.04,0.00,0.00,0.00
"UKW00015014","1954-05-20",55.94,46.04,10.00,0.00,0.00
"UKW00015014","1954-05-21",53.06,44.96,3.00,0.00,0.00
"UKW00015014","1954-05-22",48.02,42.98,33.00,0.00,0.00
"UKW00015014","1954-05-23",53.06,42.98,3.00,0.00,0.00
"UKW00015014","1954-05-24",57.92,44.06,0.00,0.00,0.00
"UKW00015014","1954-05-25",68.00,50.00,0.00,0.00,0.00
"UKW00015014","1954-05-26",71.96,48.92,0.00,0.00,0.00
"UKW00015014","1954-05-27",77.00,55.94,114.00,0.00,0.00
"UKW00015014","1954-05-28",69.98,53.06,188.00,0.00,0.00
"UKW00015014","1954-05-29",60.08,50.00,23.00,0.00,0.00
"UKW00015014","1954-05-30",62.96,48.02,0.00,0.00,0.00
"UKW00015014","1954-05-31",64.04,48.02,0.00,0.00,0.00
"UKW00015014","1954-06-01",53.06,46.94,0.00,0.00,0.00
"UKW00015014","1954-06-02",55.04,44.96,0.00,0.00,0.00
"UKW00015014","1954-06-03",60.08,46.94,0.00,0.00,0.00
"UKW00015014","1954-06-04",69.08,50.00,0.00,0.00,0.00
"UKW00015014","1954-06-05",64.04,48.02,140.00,0.00,0.00
"UKW00015014","1954-06-06",57.92,50.00,48.00,0.00,0.00
"UKW00015014","1954-06-07",62.06,48.92,56.00,0.00,0.00
"UKW00015014","1954-06-08",64.94,50.00,112.00,0.00,0.00
"UKW00015014","1954-06-09",62.06,51.08,28.00,0.00,0.00
"UKW00015014","1954-06-10",62.06,51.98,10.00,0.00,0.00
"UKW00015014","1954-06-11",60.98,48.92,28.00,0.00,0.00
"UKW00015014","1954-06-12",57.92,48.02,25.00,0.00,0.00
"UKW00015014","1954-06-13",53.06,46.94,183.00,0.00,0.00
"UKW00015014","1954-06-14",62.96,46.04,0.00,0.00,0.00
"UKW00015014","1954-06-15",64.94,46.94,0.00,0.00,0.00
"UKW00015014","1954-06-16",66.02,55.04,0.00,0.00,0.00
"UKW00015014","1954-06-17",68.00,51.08,13.00,0.00,0.00
"UKW00015014","1954-06-18",68.00,57.02,0.00,0.00,0.00
"UKW00015014","1954-06-19",68.00,55.04,0.00,0.00,0.00
"UKW00015014","1954-06-20",68.00,53.06,0.00,0.00,0.00
"UKW00015014","1954-06-21",62.06,50.00,8.00,0.00,0.00
"UKW00015014","1954-06-22",68.00,55.94,0.00,0.00,0.00
"UKW00015014","1954-06-23",66.02,51.08,0.00,0.00,0.00
"UKW00015014","1954-06-24",73.04,48.92,0.00,0.00,0.00
"UKW00015014","1954-06-25",64.04,53.96,0.00,0.00,0.00
"UKW00015014","1954-06-26",64.04,50.00,0.00,0.00,0.00
"UKW00015014","1954-06-27",62.96,46.04,0.00,0.00,0.00
"UKW00015014","1954-06-28",60.98,48.02,0.00,0.00,0.00
"UKW00015014","1954-06-29",59.00,42.98,0.00,0.00,0.00
"UKW00015014","1954-06-30",64.04,42.98,8.00,0.00,0.00
"UKW00015014","1954-07-01",62.96,53.06,3.00,0.00,0.00
"UKW00015014","1954-07-02",62.96,48.02,3.00,0.00,0.00
"UKW00015014","1954-07-03",62.96,46.04,18.00,0.00,0.00
"UKW00015014","1954-07-04",60.08,44.96,3.00,0.00,0.00
"UKW00015014","1954-07-05",59.00,46.04,0.00,0.00,0.00
"UKW00015014","1954-07-06",60.98,46.04,41.00,0.00,0.00
"UKW00015014","1954-07-07",66.02,44.96,0.00,0.00,0.00
"UKW00015014","1954-07-08",62.06,50.00,5.00,0.00,0.00
"UKW00015014","1954-07-09",69.08,51.08,0.00,0.00,0.00
"UKW00015014","1954-07-10",66.02,57.02,13.00,0.00,0.00
"UKW00015014","1954-07-11",69.08,55.04,0.00,0.00,0.00
"UKW00015014","1954-07-12",69.08,53.06,0.00,0.00,0.00
"UKW00015014","1954-07-13",71.06,50.00,0.00,0.00,0.00
"UKW00015014","1954-07-14",68.00,53.06,8.00,0.00,0.00
"UKW00015014","1954-07-15",62.96,51.98,0.00,0.00,0.00
"UKW00015014","1954-07-16",64.94,53.96,8.00,0.00,0.00
"UKW00015014","1954-07-17",60.98,55.94,147.00,0.00,0.00
"UKW00015014","1954-07-18",64.94,53.96,0.00,0.00,0.00
"UKW00015014","1954-07-19",68.00,50.00,0.00,0.00,0.00
"UKW00015014","1954-07-20",73.04,50.00,18.00,0.00,0.00
"UKW00015014","1954-07-21",64.04,53.06,0.00,0.00,0.00
"UKW00015014","1954-07-22",60.98,48.02,0.00,0.00,0.00
"UKW00015014","1954-07-23",62.06,51.08,5.00,0.00,0.00
"UKW00015014","1954-07-24",73.94,59.00,3.00,0.00,0.00
"UKW00015014","1954-07-25",64.94,57.92,135.00,0.00,0.00
"UKW00015014","1954-07-26",64.04,53.96,28.00,0.00,0.00
"UKW00015014","1954-07-27",62.96,50.00,0.00,0.00,0.00
"UKW00015014","1954-07-28",60.08,48.92,46.00,0.00,0.00
"UKW00015014","1954-07-29",62.06,50.00,0.00,0.00,0.00
"UKW00015014","1954-07-30",60.08,48.02,0.00,0.00,0.00
"UKW00015014","1954-07-31",62.96,51.98,0.00,0.00,0.00
"UKW00015014","1954-08-01",64.04,50.00,28.00,0.00,0.00
"UKW00015014","1954-08-02",66.92,60.08,0.00,0.00,0.00
"UKW00015014","1954-08-03",69.98,57.92,0.00,0.00,0.00
"UKW00015014","1954-08-04",73.94,55.94,51.00,0.00,0.00
"UKW00015014","1954-08-05",68.00,55.94,0.00,0.00,0.00
"UKW00015014","1954-08-06",66.02,51.98,41.00,0.00,0.00
"UKW00015014","1954-08-07",66.02,48.02,76.00,0.00,0.00
"UKW00015014","1954-08-08",66.02,51.98,38.00,0.00,0.00
"UKW00015014","1954-08-09",60.08,50.00,163.00,0.00,0.00
"UKW00015014","1954-08-10",64.94,50.00,13.00,0.00,0.00
"UKW00015014","1954-08-11",64.04,48.92,0.00,0.00,0.00
"UKW00015014","1954-08-12",64.94,48.92,28.00,0.00,0.00
"UKW00015014","1954-08-13",66.02,50.00,0.00,0.00,0.00
"UKW00015014","1954-08-14",66.92,46.94,8.00,0.00,0.00
"UKW00015014","1954-08-15",66.02,48.92,0.00,0.00,0.00
"UKW00015014","1954-08-16",66.02,48.92,0.00,0.00,0.00
"UKW00015014","1954-08-17",64.94,48.92,71.00,0.00,0.00
"UKW00015014","1954-08-18",62.06,53.06,8.00,0.00,0.00
"UKW00015014","1954-08-19",55.94,51.98,23.00,0.00,0.00
"UKW00015014","1954-08-20",62.06,53.06,127.00,0.00,0.00
"UKW00015014","1954-08-21",62.06,53.06,13.00,0.00,0.00
"UKW00015014","1954-08-22",64.04,53.06,3.00,0.00,0.00
"UKW00015014","1954-08-23",59.00,51.08,3.00,0.00,0.00
"UKW00015014","1954-08-24",60.08,53.06,163.00,0.00,0.00
"UKW00015014","1954-08-25",62.96,53.06,0.00,0.00,0.00
"UKW00015014","1954-08-26",68.00,48.92,0.00,0.00,0.00
"UKW00015014","1954-08-27",73.04,48.92,0.00,0.00,0.00
"UKW00015014","1954-08-28",66.02,53.06,3.00,0.00,0.00
"UKW00015014","1954-08-29",64.04,51.08,0.00,0.00,0.00
"UKW00015014","1954-08-30",71.96,53.96,0.00,0.00,0.00
"UKW00015014","1954-08-31",77.00,55.04,0.00,0.00,0.00
"UKW00015014","1954-09-01",82.94,51.98,0.00,0.00,0.00
"UKW00015014","1954-09-02",68.00,57.92,0.00,0.00,0.00
"UKW00015014","1954-09-03",69.98,53.96,0.00,0.00,0.00
"UKW00015014","1954-09-04",62.96,48.02,23.00,0.00,0.00
"UKW00015014","1954-09-05",64.04,46.04,0.00,0.00,0.00
"UKW00015014","1954-09-06",66.02,50.00,30.00,0.00,0.00
"UKW00015014","1954-09-07",64.04,46.94,0.00,0.00,0.00
"UKW00015014","1954-09-08",66.92,51.08,0.00,0.00,0.00
"UKW00015014","1954-09-09",66.02,51.98,20.00,0.00,0.00
"UKW00015014","1954-09-10",62.96,53.06,33.00,0.00,0.00
"UKW00015014","1954-09-11",64.04,48.92,51.00,0.00,0.00
"UKW00015014","1954-09-12",64.04,46.04,0.00,0.00,0.00
"UKW00015014","1954-09-13",60.98,44.06,48.00,0.00,0.00
"UKW00015014","1954-09-14",62.96,46.04,0.00,0.00,0.00
"UKW00015014","1954-09-15",60.98,51.98,3.00,0.00,0.00
"UKW00015014","1954-09-16",64.04,50.00,13.00,0.00,0.00
"UKW00015014","1954-09-17",62.06,46.94,0.00,0.00,0.00
"UKW00015014","1954-09-18",59.00,48.02,0.00,0.00,0.00
"UKW00015014","1954-09-19",64.94,42.08,13.00,0.00,0.00
"UKW00015014","1954-09-20",60.98,44.96,10.00,0.00,0.00
"UKW00015014","1954-09-21",59.00,44.06,28.00,0.00,0.00
"UKW00015014","1954-09-22",60.08,44.06,0.00,0.00,0.00
"UKW00015014","1954-09-23",62.06,37.04,18.00,0.00,0.00
"UKW00015014","1954-09-24",66.02,53.06,94.00,0.00,0.00
"UKW00015014","1954-09-25",59.00,46.94,5.00,0.00,0.00
"UKW00015014","1954-09-26",60.98,48.02,8.00,0.00,0.00
"UKW00015014","1954-09-27",55.04,42.08,0.00,0.00,0.00
"UKW00015014","1954-09-28",53.06,37.94,0.00,0.00,0.00
"UKW00015014","1954-09-29",51.98,37.94,13.00,0.00,0.00
"UKW00015014","1954-09-30",60.08,37.94,20.00,0.00,0.00
"UKW00015014","1954-10-01",68.00,51.98,8.00,0.00,0.00
"UKW00015014","1954-10-02",64.94,57.02,0.00,0.00,0.00
"UKW00015014","1954-10-03",66.92,55.04,0.00,0.00,0.00
"UKW00015014","1954-10-04",59.00,48.02,61.00,0.00,0.00
"UKW00015014","1954-10-05",64.04,55.04,0.00,0.00,0.00
"UKW00015014","1954-10-06",59.00,44.96,38.00,0.00,0.00
"UKW00015014","1954-10-07",55.94,42.08,0.00,0.00,0.00
"UKW00015014","1954-10-08",53.06,39.92,5.00,0.00,0.00
"UKW00015014","1954-10-09",60.08,48.92,0.00,0.00,0.00
"UKW00015014","1954-10-10",57.92,39.92,33.00,0.00,0.00
"UKW00015014","1954-10-11",57.02,39.02,0.00,0.00,0.00
"UKW00015014","1954-10-12",60.08,42.98,0.00,0.00,0.00
"UKW00015014","1954-10-13",62.96,51.98,0.00,0.00,0.00
"UKW00015014","1954-10-14",60.08,51.08,3.00,0.00,0.00
"UKW00015014","1954-10-15",62.06,55.04,18.00,0.00,0.00
"UKW00015014","1954-10-16",62.96,55.94,28.00,0.00,0.00
"UKW00015014","1954-10-17",66.02,57.02,3.00,0.00,0.00
"UKW00015014","1954-10-18",64.94,57.02,5.00,0.00,0.00
"UKW00015014","1954-10-19",60.98,48.02,8.00,0.00,0.00
"UKW00015014","1954-10-20",55.94,44.96,0.00,0.00,0.00
"UKW00015014","1954-10-21",55.94,46.04,5.00,0.00,0.00
"UKW00015014","1954-10-22",55.04,44.06,10.00,0.00,0.00
"UKW00015014","1954-10-23",55.94,44.06,3.00,0.00,0.00
"UKW00015014","1954-10-24",57.92,44.06,104.00,0.00,0.00
"UKW00015014","1954-10-25",48.92,35.96,3.00,0.00,0.00
"UKW00015014","1954-10-26",48.92,30.02,36.00,0.00,0.00
"UKW00015014","1954-10-27",62.96,48.92,13.00,0.00,0.00
"UKW00015014","1954-10-28",60.08,50.00,0.00,0.00,0.00
"UKW00015014","1954-10-29",60.08,48.92,8.00,0.00,0.00
"UKW00015014","1954-10-30",53.06,42.98,0.00,0.00,0.00
"UKW00015014","1954-10-31",51.08,41.00,74.00,0.00,0.00
"UKW00015014","1954-11-01",50.00,46.04,5.00,0.00,0.00
"UKW00015014","1954-11-02",51.98,44.06,0.00,0.00,0.00
"UKW00015014","1954-11-03",51.08,42.08,0.00,0.00,0.00
"UKW00015014","1954-11-04",51.98,39.92,0.00,0.00,0.00
"UKW00015014","1954-11-05",51.98,46.04,18.00,0.00,0.00
"UKW00015014","1954-11-06",50.00,46.04,157.00,0.00,0.00
"UKW00015014","1954-11-07",48.02,35.96,25.00,0.00,0.00
"UKW00015014","1954-11-08",48.02,35.06,81.00,0.00,0.00
"UKW00015014","1954-11-09",48.02,35.06,3.00,0.00,0.00
"UKW00015014","1954-11-10",48.02,35.06,99.00,0.00,0.00
"UKW00015014","1954-11-11",57.02,37.94,5.00,0.00,0.00
"UKW00015014","1954-11-12",53.96,37.94,86.00,0.00,0.00
"UKW00015014","1954-11-13",50.00,33.08,0.00,0.00,0.00
"UKW00015014","1954-11-14",48.92,35.06,0.00,0.00,0.00
"UKW00015014","1954-11-15",46.04,32.00,0.00,0.00,0.00
"UKW00015014","1954-11-16",48.02,33.98,13.00,0.00,0.00
"UKW00015014","1954-11-17",46.94,30.92,0.00,0.00,0.00
"UKW00015014","1954-11-18",42.08,26.96,0.00,0.00,0.00
"UKW00015014","1954-11-19",50.00,41.00,0.00,0.00,0.00
"UKW00015014","1954-11-20",46.04,41.00,0.00,0.00,0.00
"UKW00015014","1954-11-21",41.00,33.08,0.00,0.00,0.00
"UKW00015014","1954-11-22",50.00,41.00,76.00,0.00,0.00
"UKW00015014","1954-11-23",48.92,39.92,79.00,0.00,0.00
"UKW00015014","1954-11-24",46.04,33.98,0.00,0.00,0.00
"UKW00015014","1954-11-25",50.00,39.92,157.00,0.00,0.00
"UKW00015014","1954-11-26",50.00,35.06,33.00,0.00,0.00
"UKW00015014","1954-11-27",51.08,44.06,51.00,0.00,0.00
"UKW00015014","1954-11-28",50.00,42.08,28.00,0.00,0.00
"UKW00015014","1954-11-29",55.04,35.96,56.00,0.00,0.00
"UKW00015014","1954-11-30",55.04,42.98,53.00,0.00,0.00
"UKW00015014","1954-12-01",50.00,39.02,0.00,0.00,0.00
"UKW00015014","1954-12-02",57.02,48.02,3.00,0.00,0.00
"UKW00015014","1954-12-03",57.02,44.06,20.00,0.00,0.00
"UKW00015014","1954-12-04",53.96,42.08,5.00,0.00,0.00
"UKW00015014","1954-12-05",44.96,39.02,0.00,0.00,0.00
"UKW00015014","1954-12-06",44.06,33.98,0.00,0.00,0.00
"UKW00015014","1954-12-07",41.00,33.08,0.00,0.00,0.00
"UKW00015014","1954-12-08",42.08,30.92,239.00,0.00,0.00
"UKW00015014","1954-12-09",42.98,37.94,53.00,0.00,0.00
"UKW00015014","1954-12-10",41.00,30.02,0.00,0.00,0.00
"UKW00015014","1954-12-11",39.02,28.04,0.00,0.00,0.00
"UKW00015014","1954-12-12",41.00,32.00,102.00,0.00,0.00
"UKW00015014","1954-12-13",46.04,35.06,132.00,0.00,0.00
"UKW00015014","1954-12-14",51.98,37.04,8.00,0.00,0.00
"UKW00015014","1954-12-15",51.98,32.00,0.00,0.00,0.00
"UKW00015014","1954-12-16",48.02,30.92,0.00,0.00,0.00
"UKW00015014","1954-12-17",48.92,35.06,0.00,0.00,0.00
"UKW00015014","1954-12-18",46.04,35.06,0.00,0.00,0.00
"UKW00015014","1954-12-19",51.08,42.98,0.00,0.00,0.00
"UKW00015014","1954-12-20",50.00,39.92,0.00,0.00,0.00
"UKW00015014","1954-12-21",51.98,37.04,0.00,0.00,0.00
"UKW00015014","1954-12-22",51.98,44.06,8.00,0.00,0.00
"UKW00015014","1954-12-23",51.08,35.06,5.00,0.00,0.00
"UKW00015014","1954-12-24",39.92,32.00,15.00,0.00,0.00
"UKW00015014","1954-12-25",50.00,37.94,3.00,0.00,0.00
"UKW00015014","1954-12-26",51.08,44.96,0.00,0.00,0.00
"UKW00015014","1954-12-27",51.98,44.96,0.00,0.00,0.00
"UKW00015014","1954-12-28",53.06,46.04,0.00,0.00,0.00
"UKW00015014","1954-12-29",48.92,44.06,0.00,0.00,0.00
"UKW00015014","1954-12-30",44.96,42.98,0.00,0.00,0.00
"UKW00015014","1954-12-31",44.96,35.96,0.00,0.00,0.00
"UKW00015014","1955-01-01",37.94,30.92,0.00,0.00,0.00
"UKW00015014","1955-01-02",37.04,33.98,0.00,0.00,0.00
"UKW00015014","1955-01-03",37.04,33.98,3.00,0.00,0.00
"UKW00015014","1955-01-04",33.98,32.00,119.00,135.00,0.00
"UKW00015014","1955-01-05",33.98,32.00,0.00,5.00,102.00
"UKW00015014","1955-01-06",35.96,33.98,36.00,0.00,25.00
"UKW00015014","1955-01-07",35.96,32.00,0.00,0.00,0.00
"UKW00015014","1955-01-08",37.04,32.00,0.00,0.00,0.00
"UKW00015014","1955-01-09",35.96,30.02,0.00,0.00,0.00
"UKW00015014","1955-01-10",51.08,35.96,61.00,0.00,0.00
"UKW00015014","1955-01-11",41.00,24.98,41.00,0.00,0.00
"UKW00015014","1955-01-12",35.06,21.92,0.00,0.00,0.00
"UKW00015014","1955-01-13",30.02,26.06,15.00,30.00,0.00
"UKW00015014","1955-01-14",32.00,21.02,5.00,15.00,25.00
"UKW00015014","1955-01-15",39.02,21.02,18.00,23.00,51.00
"UKW00015014","1955-01-16",41.00,24.98,56.00,23.00,0.00
"UKW00015014","1955-01-17",32.00,19.94,30.00,30.00,25.00
"UKW00015014","1955-01-18",37.04,24.98,0.00,0.00,51.00
"UKW00015014","1955-01-19",35.06,19.94,0.00,0.00,51.00
"UKW00015014","1955-01-20",33.98,17.96,0.00,0.00,25.00
"UKW00015014","1955-01-21",39.92,33.08,18.00,0.00,25.00
"UKW00015014","1955-01-22",41.00,37.94,10.00,0.00,0.00
"UKW00015014","1955-01-23",41.00,37.04,0.00,0.00,0.00
"UKW00015014","1955-01-24",42.98,35.96,0.00,0.00,0.00
"UKW00015014","1955-01-25",42.98,37.94,0.00,0.00,0.00
"UKW00015014","1955-01-26",41.00,35.06,0.00,0.00,0.00
"UKW00015014","1955-01-27",44.06,35.96,5.00,0.00,0.00
"UKW00015014","1955-01-28",48.92,35.06,0.00,0.00,0.00
"UKW00015014","1955-01-29",51.08,46.04,0.00,0.00,0.00
"UKW00015014","1955-01-30",51.98,44.06,0.00,0.00,0.00
"UKW00015014","1955-01-31",50.00,42.08,0.00,0.00,0.00
"UKW00015014","1955-02-01",50.00,37.94,0.00,0.00,0.00
"UKW00015014","1955-02-02",46.94,35.06,0.00,0.00,0.00
"UKW00015014","1955-02-03",42.98,33.98,48.00,0.00,0.00
"UKW00015014","1955-02-04",46.94,33.08,64.00,0.00,0.00
"UKW00015014","1955-02-05",44.06,33.08,33.00,0.00,0.00
"UKW00015014","1955-02-06",42.08,33.08,15.00,0.00,0.00
"UKW00015014","1955-02-07",51.08,33.08,43.00,0.00,0.00
"UKW00015014","1955-02-08",51.08,42.98,3.00,0.00,0.00
"UKW00015014","1955-02-09",44.06,32.00,74.00,13.00,0.00
"UKW00015014","1955-02-10",39.92,33.08,0.00,0.00,0.00
"UKW00015014","1955-02-11",37.94,28.04,13.00,13.00,0.00
"UKW00015014","1955-02-12",35.96,26.06,5.00,5.00,0.00
"UKW00015014","1955-02-13",33.98,30.02,3.00,3.00,51.00
"UKW00015014","1955-02-14",35.96,30.02,0.00,0.00,0.00
"UKW00015014","1955-02-15",39.02,28.94,3.00,3.00,0.00
"UKW00015014","1955-02-16",39.92,28.94,0.00,3.00,0.00
"UKW00015014","1955-02-17",30.92,24.98,86.00,86.00,0.00
"UKW00015014","1955-02-18",33.08,23.00,3.00,3.00,102.00
"UKW00015014","1955-02-19",32.00,26.06,13.00,15.00,102.00
"UKW00015014","1955-02-20",33.98,19.04,0.00,0.00,51.00
"UKW00015014","1955-02-21",32.00,24.08,0.00,0.00,25.00
"UKW00015014","1955-02-22",33.98,28.04,0.00,0.00,25.00
"UKW00015014","1955-02-23",33.08,30.02,8.00,8.00,0.00
"UKW00015014","1955-02-24",33.98,30.02,127.00,119.00,76.00
"UKW00015014","1955-02-25",32.00,30.02,10.00,5.00,102.00
"UKW00015014","1955-02-26",33.98,21.02,0.00,0.00,76.00
"UKW00015014","1955-02-27",35.06,19.94,0.00,0.00,51.00
"UKW00015014","1955-02-28",35.96,14.00,0.00,0.00,25.00
"UKW00015014","1955-03-01",35.96,21.92,0.00,0.00,25.00
"UKW00015014","1955-03-02",39.92,21.92,0.00,0.00,25.00
"UKW00015014","1955-03-03",44.96,24.08,0.00,0.00,25.00
"UKW00015014","1955-03-04",44.06,30.02,0.00,0.00,0.00
"UKW00015014","1955-03-05",39.92,33.08,15.00,0.00,0.00
"UKW00015014","1955-03-06",35.96,32.00,20.00,0.00,0.00
"UKW00015014","1955-03-07",35.06,30.02,25.00,25.00,25.00
"UKW00015014","1955-03-08",37.94,30.92,0.00,0.00,0.00
"UKW00015014","1955-03-09",39.92,30.02,0.00,0.00,0.00
"UKW00015014","1955-03-10",41.00,26.96,0.00,0.00,0.00
"UKW00015014","1955-03-11",42.08,30.92,0.00,0.00,0.00
"UKW00015014","1955-03-12",39.92,30.02,0.00,0.00,0.00
"UKW00015014","1955-03-13",42.08,28.94,0.00,0.00,0.00
"UKW00015014","1955-03-14",48.92,33.98,0.00,0.00,0.00
"UKW00015014","1955-03-15",46.04,33.98,0.00,0.00,0.00
"UKW00015014","1955-03-16",51.08,35.06,0.00,0.00,0.00
"UKW00015014","1955-03-17",44.06,30.92,0.00,0.00,0.00
"UKW00015014","1955-03-18",44.96,28.94,0.00,0.00,0.00
"UKW00015014","1955-03-19",42.98,26.96,3.00,3.00,0.00
"UKW00015014","1955-03-20",42.98,24.98,0.00,0.00,0.00
"UKW00015014","1955-03-21",46.04,26.06,0.00,0.00,0.00
"UKW00015014","1955-03-22",39.92,24.08,0.00,0.00,0.00
"UKW00015014","1955-03-23",50.00,37.04,99.00,0.00,0.00
"UKW00015014","1955-03-24",55.04,42.08,56.00,0.00,0.00
"UKW00015014","1955-03-25",57.02,42.08,91.00,0.00,0.00
"UKW00015014","1955-03-26",53.06,41.00,150.00,0.00,0.00
"UKW00015014","1955-03-27",44.06,33.08,8.00,0.00,0.00
"UKW00015014","1955-03-28",42.98,30.92,0.00,0.00,0.00
"UKW00015014","1955-03-29",42.98,28.94,0.00,0.00,0.00
"UKW00015014","1955-03-30",42.08,26.96,0.00,0.00,0.00
"UKW00015014","1955-03-31",51.08,24.08,0.00,0.00,0.00
"UKW00015014","1955-04-01",51.98,37.04,0.00,0.00,0.00
"UKW00015014","1955-04-02",55.94,32.00,20.00,0.00,0.00
"UKW00015014","1955-04-03",51.98,37.94,8.00,0.00,0.00
"UKW00015014","1955-04-04",53.96,44.06,25.00,0.00,0.00
"UKW00015014","1955-04-05",60.98,46.94,0.00,0.00,0.00
"UKW00015014","1955-04-06",53.96,39.92,0.00,0.00,0.00
"UKW00015014","1955-04-07",53.96,37.94,38.00,0.00,0.00
"UKW00015014","1955-04-08",59.00,46.94,8.00,0.00,0.00
"UKW00015014","1955-04-09",55.94,44.96,0.00,0.00,0.00
"UKW00015014","1955-04-10",57.92,44.96,15.00,0.00,0.00
"UKW00015014","1955-04-11",62.06,50.00,0.00,0.00,0.00
"UKW00015014","1955-04-12",57.92,50.00,0.00,0.00,0.00
"UKW00015014","1955-04-13",62.06,42.08,0.00,0.00,0.00
"UKW00015014","1955-04-14",55.04,35.96,0.00,0.00,0.00
"UKW00015014","1955-04-15",50.00,33.98,0.00,0.00,0.00
"UKW00015014","1955-04-16",51.98,35.96,0.00,0.00,0.00
"UKW00015014","1955-04-17",53.96,39.92,0.00,0.00,0.00
"UKW00015014","1955-04-18",46.04,37.94,0.00,0.00,0.00
"UKW00015014","1955-04-19",57.92,37.04,0.00,0.00,0.00
"UKW00015014","1955-04-20",64.94,33.98,0.00,0.00,0.00
"UKW00015014","1955-04-21",53.06,37.94,0.00,0.00,0.00
"UKW00015014","1955-04-22",59.00,35.96,0.00,0.00,0.00
"UKW00015014","1955-04-23",57.92,39.92,0.00,0.00,0.00
"UKW00015014","1955-04-24",53.06,35.96,0.00,0.00,0.00
"UKW00015014","1955-04-25",57.02,30.92,0.00,0.00,0.00
"UKW00015014","1955-04-26",62.06,42.08,13.00,0.00,0.00
"UKW00015014","1955-04-27",62.06,44.96,3.00,0.00,0.00
"UKW00015014","1955-04-28",62.06,51.08,0.00,0.00,0.00
"UKW00015014","1955-04-29",64.04,51.08,13.00,0.00,0.00
"UKW00015014","1955-04-30",60.98,44.06,0.00,0.00,0.00
"UKW00015014","1955-05-01",55.94,41.00,36.00,0.00,0.00
"UKW00015014","1955-05-02",55.04,44.96,8.00,0.00,0.00
"UKW00015014","1955-05-03",57.02,39.92,15.00,0.00,0.00
"UKW00015014","1955-05-04",60.98,46.94,0.00,0.00,0.00
"UKW00015014","1955-05-05",60.98,44.96,0.00,0.00,0.00